Location: ??? ????
(35.8958°N, 43.5932°E)
Time: 10:23:05
(UTC+00:00)

Daily predictions for brighter satellites

Satellite Brightness Start Highest point End
(mag) Time Altitude Azimuth Time Altitude Azimuth Time Altitude Azimuth
Cosmos 2221 2.5 16:24:44 10° N 16:29:04 77° E 16:33:25 10° S
Cosmos 2322 Rocket 3.7 16:27:26 10° N 16:31:32 20° ENE 16:35:36 10° ESE
Cosmos 2369 4.5 16:27:58 10° NNW 16:33:27 55° WSW 16:38:56 10° S
Cosmos 923 Rocket 4.2 16:30:30 10° S 16:35:40 53° ESE 16:40:52 10° NNE
SL-27 R/B 4.3 16:36:04 10° SE 16:38:04 14° E 16:40:05 10° ENE
Cosmos 2279 Rocket 4.2 16:32:47 10° N 16:38:59 78° W 16:45:11 10° S
CZ-4 R/B 3.7 16:37:31 10° SSW 16:41:07 27° W 16:44:43 10° NW
Cosmos 1689 Rocket 1.7 16:38:56 10° NNE 16:41:40 69° E 16:44:22 10° S
Atlas Centaur 2 3.0 16:37:41 10° W 16:42:48 32° SSW 16:46:56 10° SE
NOSS 2-1 (E) 3.0 16:40:06 10° SSW 16:43:32 51° ESE 16:46:42 10° NE
Cosmos 1092 Rocket 4.4 16:42:54 10° SSE 16:48:47 44° E 16:54:43 10° NNE
Resurs 1-3 4.4 16:46:07 10° SE 16:50:02 33° ENE 16:53:57 10° N
OBJECT-B 0.7 16:48:27 10° SSE 16:51:38 77° ENE 16:54:51 10° N
SJ-6B 2.7 16:49:22 10° SSE 16:53:02 64° ENE 16:56:45 10° N
Cosmos 371 Rocket 3.5 16:49:57 10° NNW 16:54:45 74° WSW 16:59:33 10° S
Nadezhda 4 Rocket 4.1 16:55:34 10° S 17:01:44 82° W 17:08:01 10° N
Aurora 2 Rocket 4.4 16:59:13 10° WSW 17:04:18 32° S 17:09:31 16° ESE
SL-16 R/B 2.5 16:59:49 10° N 17:05:21 50° ENE 17:09:47 16° SE
USA 276 2.0 17:02:21 10° NW 17:05:30 85° SW 17:07:29 21° SE
Cosmos 1680 Rocket 3.4 17:02:53 10° SSW 17:08:08 81° ESE 17:13:25 10° NNE
USA 186 2.8 17:05:34 10° S 17:08:16 37° W 17:10:48 10° NNW
Cosmos 2112 Rocket 3.9 17:04:41 10° S 17:09:56 71° ESE 17:15:11 10° NNE
Lacrosse 54.117:15:55ENE17:15:55ENE17:06:48S
IGS 5A 4.3 17:10:19 19° ESE 17:12:34 31° ENE 17:16:15 10° N
GP-B 4.2 17:13:39 10° NNE 17:17:21 26° E 17:18:45 22° ESE
Cosmos 1428 Rocket 4.4 17:11:50 10° S 17:17:50 63° E 17:23:52 10° NNE
ATLAS 3B R/B 3.5 17:11:06 10° NW 17:18:04 53° WSW 17:25:15 10° S
Okean 3 Rocket 4.1 17:15:45 16° SSE 17:18:59 39° E 17:23:12 10° NNE
Cosmos 1151 Rocket 4.0 17:16:53 10° NNE 17:20:47 31° ENE 17:22:23 24° ESE
COSMOS 2455 3.2 17:16:56 10° S 17:22:26 39° ESE 17:27:57 10° NE
Cosmos 1627 Rocket 4.5 17:16:25 10° S 17:22:41 71° E 17:28:55 10° N
Cosmos 1271 Rocket 2.7 17:24:16 10° N 17:28:18 78° E 17:30:45 22° SSE
ISS -1.2 17:26:47 10° W 17:28:51 15° SW 17:30:54 10° SSW
Meteor 2-3 Rocket 4.0 17:23:28 10° SSW 17:29:07 71° W 17:34:52 10° N
Ariane Rocket 2.9 17:30:45 17° SSE 17:34:46 89° W 17:39:51 10° NNW
ERS-2 2.1 17:31:51 10° N 17:35:29 79° WNW 17:39:05 10° SSW
Cosmos 2360 Rocket 2.8 17:33:27 10° N 17:38:46 41° ENE 17:41:04 28° ESE
SPOT 3 Rocket 3.8 17:38:32 29° SE 17:41:02 54° ENE 17:46:06 10° N
Helios 1A Rocket 4.4 17:37:58 10° SSW 17:41:39 33° W 17:45:22 10° NNW
Cosmos 220 Rocket 4.0 17:39:07 10° NNW 17:43:30 68° ENE 17:45:03 38° SE
Cosmos 1766 Rocket 3.4 17:42:32 16° S 17:45:58 89° E 17:50:21 10° N
Cosmos 1328 Rocket 3.9 17:42:30 10° N 17:46:45 45° E 17:47:36 40° ESE
BREEZE M DEB (TANK) 3.2 17:47:34 10° WSW 17:50:19 69° NNW 18:02:53 10° ENE
Cosmos 1553 Rocket 4.2 17:45:04 10° N 17:50:59 50° E 17:53:19 34° SE
Resurs 01 Rocket 1.6 17:50:06 33° SSE 17:52:04 88° WSW 17:56:33 10° NNW
Cosmos 1624 Rocket 4.1 17:47:10 10° N 17:52:21 60° ENE 17:54:05 39° SE
Meteor 2-21 4.4 17:50:23 20° S 17:54:47 70° E 18:00:54 10° NNE
Gbstr 26 Del rocket 3.3 17:52:17 10° WNW 17:55:55 48° SW 17:56:40 41° S
ASTRO E2 4.1 17:55:11 10° SW 17:57:18 24° SSW 17:57:18 24° SSW
ERS-1 Rocket 4.1 18:00:14 26° ENE 18:00:36 26° ENE 18:04:44 10° NNE
Landsat 7 3.8 17:59:09 35° S 18:01:10 79° WSW 18:05:56 10° NNW
Cosmos 1862 3.2 18:04:58 62° S 18:05:35 90° ENE 18:09:34 10° N
Cosmos 1812 2.6 18:05:15 10° N 18:08:59 75° ENE 18:08:59 75° ENE
Cosmos 1782 3.8 18:06:52 10° NNW 18:10:41 44° W 18:12:02 31° SW
SPOT 5 3.8 18:13:31 30° ENE 18:13:31 30° ENE 18:16:55 10° N
Cosmos 2333 Rocket 2.8 18:08:27 10° N 18:13:43 38° ENE 18:14:32 36° E
Cosmos 2322 Rocket 2.8 18:10:26 10° NNW 18:15:52 52° WSW 18:18:14 31° SSW
ARIANE 5 R/B 3.3 18:16:46 41° ENE 18:16:46 41° ENE 18:20:35 10° N
Cosmos 2322 4.4 18:11:30 10° N 18:16:51 39° ENE 18:17:37 37° E
Cosmos 1417 Rocket 4.4 18:13:12 10° N 18:19:28 72° E 18:21:07 50° SSE
Meteor 2-16 Rocket 4.3 18:21:59 48° SSE 18:23:46 75° E 18:29:50 10° N
Cosmos 1452 Rocket 4.3 18:18:59 10° N 18:23:50 37° ENE 18:23:50 37° ENE
Cosmos 1500 Rocket 4.1 18:26:01 48° NE 18:26:01 48° NE 18:29:28 10° NNE
S3M 4.0 18:19:12 10° N 18:25:34 65° E 18:26:49 54° SE
Cosmos 2219 Rocket 2.7 18:22:54 10° N 18:28:11 41° ENE 18:28:28 40° ENE
Cosmos 2056 Rocket 4.0 18:28:57 10° NNW 18:34:05 53° WSW 18:35:08 45° SW
Spot 2 Rocket 3.3 18:33:52 79° SE 18:34:09 84° ENE 18:39:17 10° NNW
ATLAS 5 CENTAUR R/B 3.4 18:29:21 10° NNW 18:34:34 33° NE 18:35:38 32° ENE
SPOT 1/Viking Rocket 3.9 18:33:50 47° SSW 18:34:59 59° W 18:40:09 10° NNW
Cosmos 1655 Rocket 3.9 18:34:13 48° S 18:36:11 89° E 18:42:37 10° N
Meteor 1-27 Rocket 4.0 18:30:56 10° N 18:36:34 53° E 18:36:34 53° E
USA 245 4.0 18:39:42 58° W 18:39:42 58° W 18:43:15 10° NNW
Cosmos 1408 Rocket 4.5 18:39:57 39° WSW 18:40:41 43° W 18:44:49 10° N
Cosmos 1743 Rocket 4.1 18:48:32 55° NNW 18:48:32 55° NNW 18:52:05 10° N
SL-16 R/B 4.3 18:45:06 10° WNW 18:48:57 19° W 18:51:40 14° SW
Cosmos 494 Rocket 4.3 18:51:22 57° NNE 18:51:22 57° NNE 18:55:28 10° NNE
NOSS 3-1 (C) 4.1 18:43:20 10° NNW 18:51:16 88° ENE 18:53:31 56° SSE
CARTOSAT-1 4.3 18:52:01 50° WNW 18:52:01 50° WNW 18:55:36 10° NNW
Lacrosse 5 2.1 18:54:47 68° NW 18:54:47 68° NW 18:59:46 10° NE
APEX 4.2 19:00:12 84° NNE 19:00:12 84° NNE 19:06:33 10° NNE
Cosmos 2333 4.2 18:54:27 10° NNW 18:59:54 71° W 18:59:54 71° W
USA 229 DEB 3.9 19:01:49 10° NNW 19:09:18 72° ENE 19:10:10 66° E
USA 229 3.9 19:01:56 10° NNW 19:09:24 72° ENE 19:10:16 66° E
COSMOS 2428 2.9 19:06:54 10° NNW 19:11:51 67° N 19:11:51 67° N
Terra 2.7 19:15:37 47° NNW 19:15:37 47° NNW 19:19:02 10° NNW
Cosmos 2360 Rocket 3.9 19:18:06 10° NW 19:22:26 23° W 19:22:50 23° WSW
NOSS 3-1 (A) 4.0 19:22:06 10° NNW 19:30:03 87° WSW 19:30:51 77° SSE
Cosmos 2297 Rocket 3.3 19:49:40 40° NNE 19:49:40 40° NNE 19:53:12 10° NNE
NOSS 0 Rocket 4.5 19:49:07 10° NNW 19:53:53 55° NNW 19:53:53 55° NNW
Cosmos 2333 Rocket 3.9 19:53:09 10° NW 19:56:33 24° W 19:56:33 24° W
Cosmos 2227 Rocket 3.5 20:03:03 34° NNE 20:03:03 34° NNE 20:06:10 10° NNE
Cosmos 2237 Rocket 3.2 19:55:01 10° NNW 19:58:46 42° N 19:58:46 42° N
Cosmos 2219 Rocket 4.1 20:07:30 10° NW 20:10:11 20° WNW 20:10:11 20° WNW
ATLAS 5 CENTAUR R/B 3.7 20:13:38 10° NW 20:17:08 32° WNW 20:17:08 32° WNW
SL-16 R/B 3.7 20:27:45 10° N 20:31:05 31° NNE 20:31:05 31° NNE
CZ-4C R/B 3.7 20:48:23 10° NNW 20:55:35 47° NE 20:56:04 47° ENE
USA 267 3.9 20:54:48 10° NE 21:00:52 50° NNW 21:00:52 50° NNW
Cosmos 2344 4.0 21:24:41 52° ENE 21:24:41 52° ENE 21:30:16 10° NE
USA 234 4.1 21:30:45 43° NE 21:31:26 45° NE 21:37:35 10° NNW
Cosmos 2263 Rocket 3.6 21:51:47 34° N 21:51:47 34° N 21:55:06 10° NNE
CZ-2D R/B 3.4 22:15:33 10° NNE 22:19:04 37° NE 22:19:04 37° NE
Resurs 1-4 Rocket 3.0 22:37:40 10° NNE 22:41:15 45° NNE 22:41:15 45° NNE
SL-8 Rocket 4.2 22:44:09 63° NE 22:44:09 63° NE 22:49:26 10° N
CZ-4C R/B 4.1 22:37:02 10° NW 22:41:11 31° WNW 22:41:11 31° WNW
Cosmos 2366 rocket 4.1 22:54:05 70° ENE 22:54:05 70° ENE 23:00:05 10° N
Cosmos 1844 4.1 22:58:26 57° NNE 22:58:26 57° NNE 23:02:53 10° NNE
Cosmos 1844 Rocket 3.1 22:58:59 57° N 22:58:59 57° N 23:03:31 10° NNE
ADEOS II 2.8 22:54:29 10° NNE 22:58:47 49° ENE 22:58:47 49° ENE
NOSS 3-4 (A) 4.0 22:52:52 10° NNW 23:00:05 72° ENE 23:04:17 31° SE
NOSS 3-4 (C) 4.1 22:52:58 10° NNW 23:00:11 72° ENE 23:04:37 29° SE
ATLAS 2AS CENTAUR R/B 3.8 23:02:22 10° NNW 23:09:07 41° NE 23:15:21 10° ESE
SL-16 R/B 2.6 23:15:35 64° WNW 23:15:35 64° WNW 23:21:01 10° NNW
Cosmos 2278 Rocket 4.1 23:15:31 18° ESE 23:17:01 20° E 23:21:04 10° NE
ADEOS Rocket 2.9 23:20:28 61° NW 23:20:28 61° NW 23:25:05 10° NNW
BREEZE M DEB (TANK) 4.1 23:25:04 37° SE 23:25:04 37° SE 23:27:56 10° ENE
IRS-1D 3.6 23:22:15 10° NNE 23:27:00 72° ENE 23:27:00 72° ENE
Meteor 2-20 4.3 23:22:07 10° N 23:28:10 73° W 23:28:10 73° W
IDEFIX/ARIANE 42P 2.8 23:23:53 10° NNE 23:29:00 59° E 23:29:12 58° ESE
Helios 1B rocket 4.1 23:26:30 10° N 23:28:39 27° NNW 23:28:39 27° NNW
Cosmos 44 Rocket 4.1 23:26:53 10° NNW 23:31:51 51° ENE 23:34:16 27° ESE
Cosmos 2218 Rocket 4.3 23:36:30 50° WNW 23:36:30 50° WNW 23:42:29 10° N
Meteor 2-20 Rocket 4.3 23:31:01 10° N 23:37:13 86° W 23:38:06 68° S
Cosmos 1727 Rocket 4.0 23:32:35 10° N 23:38:54 82° E 23:40:38 51° SSE
Meteor 1-22 Rocket 4.2 23:41:32 63° SSE 23:42:18 74° E 23:47:43 10° NNE
Aureole 1 Rocket 4.0 23:43:51 62° SW 23:44:56 76° WNW 23:52:37 10° NNE
Meteor 2-10 4.1 23:48:44 63° SSE 23:49:31 76° E 23:54:55 10° NNE
Cosmos 1315 Rocket 3.3 23:54:17 54° N 23:54:17 54° N 23:57:27 10° N
